SCP
0 0 0 0 0 0 0 0 0 0 0 0 0 0 0 0 0 0 0 0 0 0 0 0 0 0 0 0 0 0 0 1 1 1 1 1 1 0 0 0 0 0 0
0 0 0 0 0 0 0 0 0 0 0 0 0 0 0 0 0 0 0 0 0 0 0 0 0 0 0 0 0 0 0 0 1 1 1 0 0 0 0 0 0 0 0
0 0 0 0 0 0 0 0 0 0 0 0 0 0 0 0 0 0 0 0 0 0 0 0 0 0 0 0 0 0 0 0 0 0 1 0 0 1 0 0 0 0 0
0 0 0 0 0 0 0 0 0 0 0 0 0 0 0 0 0 0 0 0 0 0 0 0 0 0 0 0 0 0 0 0 0 0 0 1 1 0 0 0 0 0 0
0 0 0 0 0 0 0 0 0 0 0 0 0 0 0 0 0 0 0 0 0 0 0 0 0 0 0 0 0 0 0 0 0 0 0 0 0 0 1 0 0 0 0
0 0 0 0 0 0 0 0 0 0 0 0 0 0 0 0 0 0 0 0 0 0 0 0 0 0 0 0 0 0 0 0 0 0 0 0 0 0 0 1 1 0 0
0 0 0 0 0 0 0 0 0 0 0 0 0 0 0 0 0 0 0 0 0 0 0 0 0 0 0 0 0 0 0 0 0 0 0 0 0 0 0 0 0 0 0
0 0 0 0 0 0 0 0 0 0 0 0 0 0 0 0 0 0 0 0 0 0 0 0 0 0 0 0 0 0 0 0 0 0 0 0 0 0 0 0 0 0 0
0 0 0 0 0 0 0 0 0 0 0 0 0 0 0 0 0 0 0 0 0 0 0 0 0 0 0 0 0 0 0 0 0 0 0 0 0 0 0 0 0 0 0
0 0 0 0 0 0 0 0 0 0 0 0 0 0 0 -0 -0 0 0 0 0 0 0 0 0 0 0 0 0 0 0 0 0 0 0 0 0 0 0 0 0 0 0
0 0 0 0 0 0 0 0 0 0 0 0 0 0 0 0 0 0 0 0 0 0 0 0 0 0 0 0 0 0 -0 -0 0 0 0 0 0 0 0 0 0 0 1
0 0 0 0 0 0 0 0 0 0 0 0 0 0 0 0 0 0 0 0 0 0 0 0 0 0 0 0 0 0 -0 -0 -0 -0 -0 0 0 0 0 0 1 0 1
0 0 0 0 0 0 0 0 0 0 0 0 0 0 0 0 0 0 0 0 0 0 0 0 0 0 0 0 -0 -0 -0 -0 -0 0 -0 0 0 0 0 0 0 0 0
0 0 0 0 -0 0 0 0 0 0 0 0 0 0 0 0 0 0 0 0 0 0 0 0 0 0 0 0 0 -0 -0 -0 -0 0 0 0 0 0 0 0 0 0 0
0 0 -0 -0 -0 0 0 0 0 0 0 0 0 0 0 0 0 0 0 0 0 0 0 0 0 0 0 0 0 0 0 0 0 0 0 0 0 0 0 0 0 0 0
0 -0 -0 -0 -0 0 0 0 0 0 0 0 0 0 0 0 0 0 0 0 0 0 -0 0 0 0 0 0 0 0 0 0 0 0 0 0 0 0 0 0 0 0 0
-0 -0 -0 -0 0 0 0 0 0 0 0 0 0 0 0 0 0 0 0 0 0 0 0 0 0 0 0 -0 -0 -0 -0 0 0 0 0 0 0 0 0 0 0 0 0
-0 -0 -0 0 0 0 0 0 0 0 0 0 0 0 0 0 0 0 0 0 0 -0 -0 0 0 0 0 0 0 -0 0 0 0 0 0 0 0 0 0 0 0 0 0
0 0 0 0 0 0 0 0 0 0 0 0 0 0 0 0 0 0 0 -0 -0 -0 -0 -0 -0 -0 -0 -0 0 0 0 0 0 0 0 0 0 0 0 0 0 0 0
0 0 0 0 0 0 0 0 0 0 0 0 0 0 0 0 0 0 -0 -0 -0 -0 -0 -0 -0 -0 -0 -0 -0 0 0 0 0 0 0 0 0 -0 0 0 0 0 0
0 0 0 0 0 0 0 0 0 0 0 0 0 0 0 -0 -0 -0 -0 -0 0 -0 -0 -0 -0 -0 -0 -0 -0 0 0 0 0 0 0 0 0 0 0 0 0 0 0
0 0 0 0 0 0 0 0 0 0 0 0 -0 -0 -0 -0 0 -0 -0 -0 -0 -0 -0 -0 -0 0 0 0 0 0 0 0 0 0 0 0 0 0 -0 0 0 0 0
0 0 0 0 0 0 0 0 0 0 -0 -0 -0 0 -0 0 0 0 0 0 0 0 0 0 0 0 0 0 0 0 0 0 0 0 0 0 0 0 0 0 0 0 0
0 0 0 0 0 0 0 0 0 -0 -0 -0 0 0 0 0 0 0 0 0 0 0 0 0 0 0 0 0 0 0 0 0 0 0 0 0 0 0 0 0 0 0 0
0 0 0 0 0 0 0 0 0 0 0 0 0 0 0 0 0 0 0 0 0 0 0 0 0 0 0 0 -0 0 0 0 0 0 0 0 0 0 0 0 0 0 0
0 0 0 0 0 0 0 0 0 0 0 0 0 0 0 0 0 0 0 0 0 0 0 0 0 0 0 0 0 0 0 0 0 0 0 0 0 0 0 0 0 0 0
Wind_Speed_500mb
37 33 20 14 21 26 27 26 25 21 18 16 10 7 3 1 3 11 19 19 20 22 24 24 25 27 27 26 24 26 29 30 38 41 36 41 46 43 50 40 39 39 42
33 32 27 16 5 16 21 21 20 18 15 10 10 6 3 8 14 23 27 27 29 34 35 33 31 31 33 34 33 29 29 30 31 27 27 29 30 36 33 31 29 32 32
27 23 19 15 13 7 3 6 11 15 19 22 23 23 26 29 30 32 37 35 37 40 38 34 31 32 33 34 37 37 32 31 33 28 24 20 27 18 23 26 32 36 37
27 29 25 19 20 15 8 13 18 23 28 32 34 35 37 42 42 52 51 49 42 39 37 37 35 31 28 29 31 36 37 35 35 37 29 32 36 28 32 34 31 33 41
24 23 18 15 17 20 24 25 29 30 31 33 35 42 49 58 64 62 62 58 54 48 46 41 37 34 30 27 26 31 34 37 39 32 37 42 35 41 33 37 29 41 36
19 19 18 18 19 20 25 30 36 38 40 44 47 47 49 49 55 58 68 66 72 68 57 49 43 37 32 33 30 28 31 34 37 42 44 35 33 32 28 30 33 32 40
14 18 23 27 32 36 39 41 42 43 42 46 48 46 46 50 56 56 59 61 58 63 61 59 53 46 40 38 37 35 33 40 43 43 47 46 41 38 39 43 38 43 43
21 23 29 36 41 51 54 57 61 65 63 62 65 66 66 67 70 67 67 65 63 64 60 59 61 57 50 45 45 44 43 47 53 54 54 55 52 44 38 39 34 37 44
33 37 39 43 50 55 54 56 60 63 64 69 73 79 84 88 89 82 77 71 65 64 64 61 62 57 50 47 48 51 51 53 58 65 66 62 57 59 52 43 44 43 29
41 44 47 47 48 51 54 58 62 65 70 72 79 82 96 103 103 87 84 76 66 60 57 58 56 53 54 54 54 58 61 61 64 71 77 68 61 56 47 43 44 50 48
52 54 55 48 51 55 61 59 59 60 60 60 62 72 84 85 72 72 81 81 81 65 68 59 60 64 65 63 64 66 68 67 72 79 81 72 61 50 40 42 43 54 48
54 57 56 57 60 64 65 66 67 63 60 63 71 73 72 65 65 65 63 62 60 57 59 62 63 69 71 70 71 72 73 74 79 83 77 67 53 47 42 39 42 51 46
57 57 59 62 67 70 68 71 62 61 71 70 64 63 58 63 66 64 62 56 56 57 60 59 62 61 60 61 64 67 70 74 74 77 67 54 43 45 44 39 42 47 48
63 65 66 72 74 76 71 68 67 62 61 58 55 58 59 58 55 54 56 66 62 60 63 68 74 71 66 62 59 54 58 67 68 65 60 53 43 46 39 40 43 44 50
73 72 73 80 82 76 71 63 65 56 60 66 65 67 66 63 61 59 56 56 52 51 51 51 53 61 63 54 51 52 52 57 58 55 53 49 46 48 46 44 43 46 60
75 78 86 84 78 73 67 61 70 71 68 67 69 68 64 60 59 54 54 56 52 53 54 55 52 53 53 53 56 54 55 52 49 49 48 49 49 49 47 46 47 52 60
80 89 86 75 72 68 64 75 76 70 66 68 66 62 60 60 57 54 49 48 49 50 52 52 56 55 53 55 61 61 62 59 51 51 43 42 44 41 42 40 47 56 51
85 87 77 74 72 75 78 77 73 69 63 66 63 57 55 55 53 51 50 50 50 47 45 46 49 52 58 67 69 58 49 51 48 47 45 43 39 37 39 39 41 39 38
81 77 72 73 80 77 76 73 70 65 60 62 57 54 51 50 49 47 46 45 43 43 46 50 51 57 58 50 37 34 40 46 44 46 48 49 44 41 37 41 34 39 42
73 69 77 79 78 76 68 67 67 63 59 55 54 50 46 44 42 41 42 38 38 44 45 45 42 35 35 28 35 39 44 47 50 47 47 43 43 55 54 39 31 51 66
70 71 75 76 77 74 64 65 63 61 53 55 48 39 39 35 33 40 33 33 30 27 29 29 28 32 34 26 27 32 41 42 43 38 35 39 45 45 71 40 29 44 69
75 75 79 78 75 62 61 61 60 53 50 46 33 34 32 30 32 35 32 29 29 27 25 26 22 18 19 18 18 20 18 19 25 29 26 29 34 53 54 54 54 65 71
75 78 77 76 68 59 59 59 54 45 45 32 29 28 23 23 30 31 24 20 20 19 12 9 8 7 6 9 16 12 13 15 18 21 24 29 33 51 59 33 83 88 77
76 75 72 73 68 59 55 50 42 44 35 28 26 20 22 26 17 20 19 18 12 5 3 1 3 5 19 27 24 23 20 27 35 36 40 39 41 39 67 85 83 86 98
71 68 69 68 61 56 52 51 41 31 24 22 17 21 17 20 21 18 22 14 10 8 10 14 20 22 26 26 24 18 20 24 32 36 36 48 61 72 73 77 87 101 109
64 66 63 60 59 53 50 44 37 25 20 15 16 21 18 20 17 17 22 17 19 18 23 32 26 25 23 23 19 24 25 27 30 33 67 84 82 80 79 82 99 94 96
Wind_Direction_500mb
21 11 336 304 257 229 207 200 198 196 200 201 208 190 191 258 317 333 329 329 331 336 333 328 322 318 314 308 303 293 284 279 275 277 278 276 280 278 274 275 275 274 278
33 34 33 39 121 188 193 200 207 216 218 227 216 209 304 315 312 311 315 313 312 318 319 312 308 316 320 313 310 305 299 284 277 270 277 281 282 281 277 273 271 277 283
35 41 57 73 69 78 159 259 284 290 279 272 268 274 281 292 295 304 310 308 305 306 307 306 307 312 312 310 310 309 304 300 285 273 254 273 271 276 275 276 281 282 286
41 41 41 33 16 358 304 271 263 269 263 262 265 270 276 283 290 294 298 302 299 291 287 291 297 310 319 321 316 305 304 301 296 293 277 262 263 272 278 282 275 276 279
26 24 23 8 353 335 324 310 296 290 283 281 284 289 290 292 291 289 289 288 292 285 277 277 278 286 305 317 318 309 303 305 299 294 293 281 275 270 265 271 269 276 277
10 10 14 7 351 327 312 302 296 294 286 279 281 289 295 301 301 300 298 294 291 287 276 267 266 270 280 293 304 304 310 315 310 299 289 284 280 270 275 271 270 269 276
8 359 352 348 337 327 317 309 301 294 290 284 279 277 284 299 301 301 300 299 295 289 283 266 260 264 269 279 287 295 303 311 313 313 299 284 277 272 269 270 271 271 268
344 334 326 321 322 316 306 300 296 293 292 287 283 287 294 301 308 300 295 292 293 288 280 264 260 264 265 270 277 286 297 303 308 308 309 295 281 271 266 266 259 265 258
326 320 319 317 319 320 318 317 304 296 291 286 289 292 293 294 298 296 289 288 286 283 275 259 256 256 256 263 271 279 286 293 300 305 302 300 284 274 269 264 259 253 255
323 319 319 317 320 317 315 312 306 300 300 294 286 290 293 294 296 290 281 280 281 283 272 262 257 256 259 266 274 281 288 291 294 300 302 295 286 275 268 260 260 252 250
322 320 317 314 314 313 312 308 305 300 295 293 293 296 296 294 290 285 283 280 277 269 268 265 265 266 270 274 278 282 286 291 296 300 299 288 280 272 262 259 255 249 247
318 317 316 315 316 313 310 308 305 301 297 294 295 296 296 292 290 291 287 282 273 260 266 269 269 272 275 277 277 278 283 288 292 296 292 281 272 267 262 257 254 248 243
318 315 314 312 313 312 309 307 303 298 297 295 296 299 296 294 293 288 283 276 279 275 267 261 270 275 277 278 279 281 282 283 287 287 281 269 263 264 259 248 252 243 237
321 318 313 313 313 311 308 306 303 300 300 298 296 294 294 299 296 291 284 283 279 270 267 270 275 277 276 273 271 270 274 277 277 276 270 263 256 254 249 244 243 243 235
322 320 316 313 312 311 309 307 306 305 303 305 304 303 304 306 304 297 284 283 279 275 271 273 273 273 272 267 264 266 271 275 274 268 264 258 252 250 243 234 239 234 231
320 318 316 313 311 310 309 306 308 313 312 308 307 305 304 307 304 299 290 287 280 273 274 271 270 271 265 261 263 270 273 273 267 262 255 253 249 247 240 235 230 236 223
318 318 316 313 311 310 307 309 313 315 311 310 309 308 305 303 303 302 289 286 284 280 276 270 266 264 260 264 268 270 271 269 259 258 254 256 251 241 231 224 217 231 224
318 317 316 313 313 314 316 314 315 314 311 309 311 310 308 304 301 298 291 286 277 275 275 272 271 267 266 268 270 268 261 255 255 253 247 249 250 232 215 217 205 209 202
317 314 315 315 319 322 322 319 319 317 312 313 314 312 308 306 303 298 294 289 283 273 276 279 275 268 268 269 263 254 253 254 254 247 248 249 243 220 214 193 201 203 195
318 315 320 320 323 324 325 324 323 321 315 320 313 310 307 305 304 304 303 297 286 281 280 278 271 267 267 256 255 249 247 250 250 244 246 243 224 199 186 195 199 211 195
321 321 325 320 324 328 328 326 324 323 321 317 314 307 307 309 309 310 307 298 291 279 276 279 278 272 271 264 243 238 246 246 247 242 222 218 209 206 190 205 242 203 178
327 332 329 329 331 334 333 328 322 328 332 326 317 311 312 311 306 308 307 300 294 289 293 293 282 264 266 266 249 217 218 212 211 217 209 187 165 171 192 210 225 203 152
328 334 333 331 334 339 338 332 330 334 329 326 321 319 319 324 318 311 318 319 299 296 309 305 288 279 275 150 154 153 141 154 185 187 171 165 166 186 205 188 161 149 157
332 336 337 334 336 342 342 342 343 335 334 330 329 333 342 335 354 359 345 336 337 331 337 141 134 134 124 143 130 120 120 121 120 127 145 152 160 153 140 145 143 151 149
337 339 342 340 343 346 347 346 343 337 345 339 360 354 345 13 20 23 15 22 19 68 87 100 113 121 124 127 133 133 133 132 121 115 132 139 142 143 145 146 147 146 143
338 344 346 347 346 349 354 1 0 2 357 10 12 10 35 16 34 27 26 58 72 82 98 100 111 118 120 116 130 147 161 158 142 136 140 137 141 143 143 141 138 141 140
Wind_Speed_850mb
37 33 20 14 21 26 27 26 25 21 18 16 10 7 3 1 3 11 19 19 20 22 24 24 25 27 27 26 24 26 29 30 38 41 36 41 46 43 50 40 39 39 42
33 32 27 16 5 16 21 21 20 18 15 10 10 6 3 8 14 23 27 27 29 34 35 33 31 31 33 34 33 29 29 30 31 27 27 29 30 36 33 31 29 32 32
27 23 19 15 13 7 3 6 11 15 19 22 23 23 26 29 30 32 37 35 37 40 38 34 31 32 33 34 37 37 32 31 33 28 24 20 27 18 23 26 32 36 37
27 29 25 19 20 15 8 13 18 23 28 32 34 35 37 42 42 52 51 49 42 39 37 37 35 31 28 29 31 36 37 35 35 37 29 32 36 28 32 34 31 33 41
24 23 18 15 17 20 24 25 29 30 31 33 35 42 49 58 64 62 62 58 54 48 46 41 37 34 30 27 26 31 34 37 39 32 37 42 35 41 33 37 29 41 36
19 19 18 18 19 20 25 30 36 38 40 44 47 47 49 49 55 58 68 66 72 68 57 49 43 37 32 33 30 28 31 34 37 42 44 35 33 32 28 30 33 32 40
14 18 23 27 32 36 39 41 42 43 42 46 48 46 46 50 56 56 59 61 58 63 61 59 53 46 40 38 37 35 33 40 43 43 47 46 41 38 39 43 38 43 43
21 23 29 36 41 51 54 57 61 65 63 62 65 66 66 67 70 67 67 65 63 64 60 59 61 57 50 45 45 44 43 47 53 54 54 55 52 44 38 39 34 37 44
33 37 39 43 50 55 54 56 60 63 64 69 73 79 84 88 89 82 77 71 65 64 64 61 62 57 50 47 48 51 51 53 58 65 66 62 57 59 52 43 44 43 29
41 44 47 47 48 51 54 58 62 65 70 72 79 82 96 103 103 87 84 76 66 60 57 58 56 53 54 54 54 58 61 61 64 71 77 68 61 56 47 43 44 50 48
52 54 55 48 51 55 61 59 59 60 60 60 62 72 84 85 72 72 81 81 81 65 68 59 60 64 65 63 64 66 68 67 72 79 81 72 61 50 40 42 43 54 48
54 57 56 57 60 64 65 66 67 63 60 63 71 73 72 65 65 65 63 62 60 57 59 62 63 69 71 70 71 72 73 74 79 83 77 67 53 47 42 39 42 51 46
57 57 59 62 67 70 68 71 62 61 71 70 64 63 58 63 66 64 62 56 56 57 60 59 62 61 60 61 64 67 70 74 74 77 67 54 43 45 44 39 42 47 48
63 65 66 72 74 76 71 68 67 62 61 58 55 58 59 58 55 54 56 66 62 60 63 68 74 71 66 62 59 54 58 67 68 65 60 53 43 46 39 40 43 44 50
73 72 73 80 82 76 71 63 65 56 60 66 65 67 66 63 61 59 56 56 52 51 51 51 53 61 63 54 51 52 52 57 58 55 53 49 46 48 46 44 43 46 60
75 78 86 84 78 73 67 61 70 71 68 67 69 68 64 60 59 54 54 56 52 53 54 55 52 53 53 53 56 54 55 52 49 49 48 49 49 49 47 46 47 52 60
80 89 86 75 72 68 64 75 76 70 66 68 66 62 60 60 57 54 49 48 49 50 52 52 56 55 53 55 61 61 62 59 51 51 43 42 44 41 42 40 47 56 51
85 87 77 74 72 75 78 77 73 69 63 66 63 57 55 55 53 51 50 50 50 47 45 46 49 52 58 67 69 58 49 51 48 47 45 43 39 37 39 39 41 39 38
81 77 72 73 80 77 76 73 70 65 60 62 57 54 51 50 49 47 46 45 43 43 46 50 51 57 58 50 37 34 40 46 44 46 48 49 44 41 37 41 34 39 42
73 69 77 79 78 76 68 67 67 63 59 55 54 50 46 44 42 41 42 38 38 44 45 45 42 35 35 28 35 39 44 47 50 47 47 43 43 55 54 39 31 51 66
70 71 75 76 77 74 64 65 63 61 53 55 48 39 39 35 33 40 33 33 30 27 29 29 28 32 34 26 27 32 41 42 43 38 35 39 45 45 71 40 29 44 69
75 75 79 78 75 62 61 61 60 53 50 46 33 34 32 30 32 35 32 29 29 27 25 26 22 18 19 18 18 20 18 19 25 29 26 29 34 53 54 54 54 65 71
75 78 77 76 68 59 59 59 54 45 45 32 29 28 23 23 30 31 24 20 20 19 12 9 8 7 6 9 16 12 13 15 18 21 24 29 33 51 59 33 83 88 77
76 75 72 73 68 59 55 50 42 44 35 28 26 20 22 26 17 20 19 18 12 5 3 1 3 5 19 27 24 23 20 27 35 36 40 39 41 39 67 85 83 86 98
71 68 69 68 61 56 52 51 41 31 24 22 17 21 17 20 21 18 22 14 10 8 10 14 20 22 26 26 24 18 20 24 32 36 36 48 61 72 73 77 87 101 109
64 66 63 60 59 53 50 44 37 25 20 15 16 21 18 20 17 17 22 17 19 18 23 32 26 25 23 23 19 24 25 27 30 33 67 84 82 80 79 82 99 94 96
Wind_Direction_850mb
21 11 336 304 257 229 207 200 198 196 200 201 208 190 191 258 317 333 329 329 331 336 333 328 322 318 314 308 303 293 284 279 275 277 278 276 280 278 274 275 275 274 278
33 34 33 39 121 188 193 200 207 216 218 227 216 209 304 315 312 311 315 313 312 318 319 312 308 316 320 313 310 305 299 284 277 270 277 281 282 281 277 273 271 277 283
35 41 57 73 69 78 159 259 284 290 279 272 268 274 281 292 295 304 310 308 305 306 307 306 307 312 312 310 310 309 304 300 285 273 254 273 271 276 275 276 281 282 286
41 41 41 33 16 358 304 271 263 269 263 262 265 270 276 283 290 294 298 302 299 291 287 291 297 310 319 321 316 305 304 301 296 293 277 262 263 272 278 282 275 276 279
26 24 23 8 353 335 324 310 296 290 283 281 284 289 290 292 291 289 289 288 292 285 277 277 278 286 305 317 318 309 303 305 299 294 293 281 275 270 265 271 269 276 277
10 10 14 7 351 327 312 302 296 294 286 279 281 289 295 301 301 300 298 294 291 287 276 267 266 270 280 293 304 304 310 315 310 299 289 284 280 270 275 271 270 269 276
8 359 352 348 337 327 317 309 301 294 290 284 279 277 284 299 301 301 300 299 295 289 283 266 260 264 269 279 287 295 303 311 313 313 299 284 277 272 269 270 271 271 268
344 334 326 321 322 316 306 300 296 293 292 287 283 287 294 301 308 300 295 292 293 288 280 264 260 264 265 270 277 286 297 303 308 308 309 295 281 271 266 266 259 265 258
326 320 319 317 319 320 318 317 304 296 291 286 289 292 293 294 298 296 289 288 286 283 275 259 256 256 256 263 271 279 286 293 300 305 302 300 284 274 269 264 259 253 255
323 319 319 317 320 317 315 312 306 300 300 294 286 290 293 294 296 290 281 280 281 283 272 262 257 256 259 266 274 281 288 291 294 300 302 295 286 275 268 260 260 252 250
322 320 317 314 314 313 312 308 305 300 295 293 293 296 296 294 290 285 283 280 277 269 268 265 265 266 270 274 278 282 286 291 296 300 299 288 280 272 262 259 255 249 247
318 317 316 315 316 313 310 308 305 301 297 294 295 296 296 292 290 291 287 282 273 260 266 269 269 272 275 277 277 278 283 288 292 296 292 281 272 267 262 257 254 248 243
318 315 314 312 313 312 309 307 303 298 297 295 296 299 296 294 293 288 283 276 279 275 267 261 270 275 277 278 279 281 282 283 287 287 281 269 263 264 259 248 252 243 237
321 318 313 313 313 311 308 306 303 300 300 298 296 294 294 299 296 291 284 283 279 270 267 270 275 277 276 273 271 270 274 277 277 276 270 263 256 254 249 244 243 243 235
322 320 316 313 312 311 309 307 306 305 303 305 304 303 304 306 304 297 284 283 279 275 271 273 273 273 272 267 264 266 271 275 274 268 264 258 252 250 243 234 239 234 231
320 318 316 313 311 310 309 306 308 313 312 308 307 305 304 307 304 299 290 287 280 273 274 271 270 271 265 261 263 270 273 273 267 262 255 253 249 247 240 235 230 236 223
318 318 316 313 311 310 307 309 313 315 311 310 309 308 305 303 303 302 289 286 284 280 276 270 266 264 260 264 268 270 271 269 259 258 254 256 251 241 231 224 217 231 224
318 317 316 313 313 314 316 314 315 314 311 309 311 310 308 304 301 298 291 286 277 275 275 272 271 267 266 268 270 268 261 255 255 253 247 249 250 232 215 217 205 209 202
317 314 315 315 319 322 322 319 319 317 312 313 314 312 308 306 303 298 294 289 283 273 276 279 275 268 268 269 263 254 253 254 254 247 248 249 243 220 214 193 201 203 195
318 315 320 320 323 324 325 324 323 321 315 320 313 310 307 305 304 304 303 297 286 281 280 278 271 267 267 256 255 249 247 250 250 244 246 243 224 199 186 195 199 211 195
321 321 325 320 324 328 328 326 324 323 321 317 314 307 307 309 309 310 307 298 291 279 276 279 278 272 271 264 243 238 246 246 247 242 222 218 209 206 190 205 242 203 178
327 332 329 329 331 334 333 328 322 328 332 326 317 311 312 311 306 308 307 300 294 289 293 293 282 264 266 266 249 217 218 212 211 217 209 187 165 171 192 210 225 203 152
328 334 333 331 334 339 338 332 330 334 329 326 321 319 319 324 318 311 318 319 299 296 309 305 288 279 275 150 154 153 141 154 185 187 171 165 166 186 205 188 161 149 157
332 336 337 334 336 342 342 342 343 335 334 330 329 333 342 335 354 359 345 336 337 331 337 141 134 134 124 143 130 120 120 121 120 127 145 152 160 153 140 145 143 151 149
337 339 342 340 343 346 347 346 343 337 345 339 360 354 345 13 20 23 15 22 19 68 87 100 113 121 124 127 133 133 133 132 121 115 132 139 142 143 145 146 147 146 143
338 344 346 347 346 349 354 1 0 2 357 10 12 10 35 16 34 27 26 58 72 82 98 100 111 118 120 116 130 147 161 158 142 136 140 137 141 143 143 141 138 141 140